SCP
0 0 0 0 0 0 0 0 -0 0 -0 0 0 0 0 0 0 0 0 0 0 0 0 0 0 0 0 0 0 0 0 0
0 0 0 0 0 0 0 0 -0 0 0 0 0 0 0 0 0 0 0 0 0 0 0 0 0 0 0 0 0 0 0 0
0 0 0 0 0 0 0 0 0 0 0 0 0 0 0 0 0 0 0 0 0 0 0 0 0 0 0 0 0 0 0 0
0 0 0 0 0 0 0 0 0 0 0 -0 0 0 0 0 0 0 0 0 0 0 0 0 0 0 0 0 0 0 0 0
0 0 0 0 0 0 0 0 0 0 0 0 0 0 0 0 0 0 0 0 0 0 0 0 0 0 0 0 0 0 0 0
0 0 0 0 0 0 0 0 0 0 0 0 0 0 0 0 0 0 0 0 0 0 0 0 0 0 0 0 0 0 0 0
0 0 0 0 0 0 0 0 0 0 0 0 0 0 0 0 0 0 0 0 0 0 0 0 0 0 0 0 0 0 0 0
0 0 0 0 0 0 0 0 0 0 0 0 0 0 0 0 0 0 0 0 0 0 0 0 0 0 0 0 0 0 0 0
0 0 0 0 0 0 -0 0 0 0 0 0 0 0 0 0 0 0 0 0 0 0 0 0 0 0 0 0 0 0 0 0
0 0 -0 0 0 0 0 0 0 0 0 0 0 0 0 0 0 0 0 0 0 0 -0 -0 -0 -0 0 0 0 0 0 0
0 -0 -0 -0 0 0 0 0 0 0 0 0 0 0 0 0 0 0 0 0 0 0 0 0 0 0 -0 -0 0 -0 -0 0
0 0 0 -0 0 0 0 0 0 0 0 0 0 0 0 0 0 0 0 0 0 0 0 0 0 -0 -0 -0 -0 -0 0 0
0 0 0 0 0 0 0 0 0 0 0 0 0 0 0 -0 -0 -0 -0 -0 -0 -0 -0 -0 -0 0 -0 -0 0 0 0 0
0 0 0 0 0 0 0 0 0 0 0 0 0 0 0 0 0 0 0 0 -0 -0 -0 -0 -0 -0 0 0 0 0 0 0
0 0 0 0 0 0 0 0 0 0 0 0 0 0 0 0 0 0 0 0 0 0 0 0 0 0 0 0 0 0 0 0
0 0 0 0 0 0 0 0 0 0 0 0 0 0 0 0 0 0 0 0 0 0 0 0 0 0 0 0 0 0 0 0
0 0 0 0 0 0 0 0 0 0 0 0 0 0 0 0 0 0 0 0 0 0 0 0 0 0 0 0 0 0 0 0
0 0 0 0 0 0 0 0 0 0 0 0 0 0 0 0 0 0 0 0 0 0 0 0 0 0 0 0 0 0 0 0
0 0 0 0 0 0 0 0 0 0 0 0 0 0 0 0 0 0 0 0 0 0 0 0 0 0 0 0 0 0 0 0
0 0 0 0 0 0 0 0 0 0 0 0 0 0 0 0 0 0 0 0 0 0 0 0 0 0 0 0 0 0 0 0
Wind_Speed_500mb
28 31 27 25 26 26 27 27 23 19 15 11 11 13 12 19 20 17 17 20 19 20 19 16 21 25 28 30 33 39 49 49
30 25 23 23 24 24 22 21 18 13 8 4 2 5 8 14 14 14 11 11 14 17 19 25 25 27 27 28 29 34 35 37
23 21 21 22 22 23 21 18 16 12 7 4 5 7 9 11 12 12 13 18 20 23 27 31 32 30 32 31 31 30 25 24
14 17 18 18 21 22 20 18 14 13 9 8 10 11 12 14 14 13 16 21 23 25 31 33 34 32 35 34 34 34 35 33
12 13 16 16 17 17 18 17 16 16 16 18 20 22 24 25 26 26 27 32 38 42 46 47 46 47 48 48 49 49 50 47
9 14 17 16 16 16 19 19 23 28 30 32 32 33 34 38 41 46 52 60 65 64 62 60 57 55 53 51 50 47 47 45
11 14 18 17 17 18 23 25 28 34 36 38 42 44 48 52 54 57 61 60 60 63 64 64 61 54 51 48 49 49 48 49
15 16 15 17 19 23 26 28 31 34 36 39 43 47 51 53 56 60 60 57 56 54 52 57 55 45 43 40 41 40 39 37
18 19 20 22 24 29 33 37 37 39 40 42 42 43 45 46 47 48 48 47 45 43 42 44 45 39 35 32 31 31 31 29
28 30 32 32 33 31 32 31 31 37 37 37 36 36 37 38 39 37 36 37 38 37 35 33 36 32 29 25 24 24 23 22
37 35 33 29 28 24 23 23 25 27 29 30 28 27 27 28 29 28 27 28 27 27 26 25 24 23 21 18 16 15 14 13
38 34 29 27 25 23 21 21 21 22 21 20 20 19 19 20 20 20 20 20 20 18 19 17 15 14 13 11 9 7 7 6
41 34 30 27 25 24 22 21 20 18 18 18 16 15 14 14 13 13 13 12 11 11 10 10 8 7 6 5 4 4 5 7
41 37 35 31 27 25 23 21 21 20 19 17 15 12 10 9 8 7 6 5 4 3 2 2 2 1 2 4 7 9 11 13
46 44 41 38 35 31 30 27 25 24 21 20 18 16 15 14 13 13 11 10 9 7 8 9 9 11 12 14 16 17 18 20
52 48 43 42 39 38 36 34 33 32 30 27 25 23 22 20 19 19 18 18 18 19 21 21 20 21 23 24 24 26 29 32
57 53 48 48 45 44 42 39 38 38 37 35 33 32 31 30 29 28 27 27 27 28 29 29 28 30 32 34 36 37 39 50
60 53 52 53 51 49 48 47 47 44 41 41 40 39 38 37 36 35 34 38 38 37 36 37 37 39 40 41 44 48 50 60
63 59 56 58 57 53 53 53 52 50 48 49 48 46 45 45 45 44 46 48 48 44 46 46 48 49 49 49 53 61 64 68
63 64 65 66 64 61 61 61 59 57 56 55 54 54 54 53 54 55 57 58 58 53 54 54 53 55 59 60 67 72 74 75
Wind_Direction_500mb
319 323 328 330 331 332 328 329 325 325 321 294 256 232 216 227 232 236 242 237 231 226 219 223 216 209 206 211 218 217 222 229
324 328 334 333 341 341 338 339 336 339 344 319 248 200 204 225 225 222 214 249 241 215 213 217 204 199 192 188 189 197 212 223
332 338 341 348 354 358 357 359 359 2 17 70 128 143 180 194 187 180 216 213 205 199 195 193 182 184 184 181 181 182 191 189
342 357 358 6 8 10 13 26 25 35 48 81 111 130 140 141 142 158 178 174 168 165 163 159 152 155 156 152 149 151 152 147
350 13 15 19 20 27 37 47 57 74 85 97 104 115 122 125 130 134 137 139 135 134 131 129 130 132 131 130 132 133 133 132
27 49 44 42 45 59 70 79 94 96 96 98 105 112 117 122 124 126 129 129 126 123 121 120 120 119 121 122 121 121 119 117
89 86 72 65 74 85 90 95 97 96 96 101 105 110 113 117 119 121 120 118 118 119 121 121 117 118 118 119 120 120 119 120
133 112 102 95 94 94 94 99 98 97 101 104 107 110 113 116 118 114 111 113 113 113 115 113 112 114 114 116 117 117 116 114
131 124 115 109 105 103 103 102 93 97 97 98 99 100 103 105 106 108 113 116 116 115 116 113 110 111 109 109 110 113 115 116
136 128 123 119 115 114 112 116 118 114 113 109 106 107 109 110 108 109 111 111 113 111 111 113 113 114 115 115 117 117 117 115
143 140 138 134 128 124 122 119 119 116 116 113 112 111 112 109 109 113 115 113 111 113 113 112 112 112 111 113 115 114 112 107
156 156 155 147 140 137 140 138 135 130 126 124 122 122 121 120 123 121 117 113 113 113 113 112 111 111 111 111 103 100 89 73
173 173 174 171 168 165 166 162 160 157 154 150 145 142 137 131 126 120 119 120 121 118 110 107 110 104 90 77 59 32 15 4
189 190 190 189 189 187 189 190 186 181 177 175 176 173 170 163 155 153 152 143 132 123 136 163 183 216 286 304 312 320 326 324
201 202 200 199 199 197 201 204 204 204 204 205 205 205 206 208 213 218 221 226 236 251 268 278 282 283 281 281 282 285 287 287
213 212 208 208 208 208 210 212 214 216 218 221 223 224 226 228 232 236 240 244 246 250 254 259 262 263 269 277 281 286 289 288
221 219 214 216 216 217 218 222 226 228 229 230 231 233 234 236 239 242 246 253 259 263 268 269 271 274 279 283 286 287 288 288
230 228 221 222 223 224 224 228 231 234 237 239 241 243 246 248 252 255 255 256 258 261 265 270 274 275 276 277 278 278 276 276
237 234 231 231 232 231 231 234 236 239 240 243 246 249 252 255 259 261 261 262 266 267 269 269 272 274 275 277 274 273 274 277
242 239 237 235 236 233 235 238 241 243 245 248 250 253 255 256 258 260 262 265 268 267 264 270 274 276 276 275 271 275 278 281
Wind_Speed_850mb
28 31 27 25 26 26 27 27 23 19 15 11 11 13 12 19 20 17 17 20 19 20 19 16 21 25 28 30 33 39 49 49
30 25 23 23 24 24 22 21 18 13 8 4 2 5 8 14 14 14 11 11 14 17 19 25 25 27 27 28 29 34 35 37
23 21 21 22 22 23 21 18 16 12 7 4 5 7 9 11 12 12 13 18 20 23 27 31 32 30 32 31 31 30 25 24
14 17 18 18 21 22 20 18 14 13 9 8 10 11 12 14 14 13 16 21 23 25 31 33 34 32 35 34 34 34 35 33
12 13 16 16 17 17 18 17 16 16 16 18 20 22 24 25 26 26 27 32 38 42 46 47 46 47 48 48 49 49 50 47
9 14 17 16 16 16 19 19 23 28 30 32 32 33 34 38 41 46 52 60 65 64 62 60 57 55 53 51 50 47 47 45
11 14 18 17 17 18 23 25 28 34 36 38 42 44 48 52 54 57 61 60 60 63 64 64 61 54 51 48 49 49 48 49
15 16 15 17 19 23 26 28 31 34 36 39 43 47 51 53 56 60 60 57 56 54 52 57 55 45 43 40 41 40 39 37
18 19 20 22 24 29 33 37 37 39 40 42 42 43 45 46 47 48 48 47 45 43 42 44 45 39 35 32 31 31 31 29
28 30 32 32 33 31 32 31 31 37 37 37 36 36 37 38 39 37 36 37 38 37 35 33 36 32 29 25 24 24 23 22
37 35 33 29 28 24 23 23 25 27 29 30 28 27 27 28 29 28 27 28 27 27 26 25 24 23 21 18 16 15 14 13
38 34 29 27 25 23 21 21 21 22 21 20 20 19 19 20 20 20 20 20 20 18 19 17 15 14 13 11 9 7 7 6
41 34 30 27 25 24 22 21 20 18 18 18 16 15 14 14 13 13 13 12 11 11 10 10 8 7 6 5 4 4 5 7
41 37 35 31 27 25 23 21 21 20 19 17 15 12 10 9 8 7 6 5 4 3 2 2 2 1 2 4 7 9 11 13
46 44 41 38 35 31 30 27 25 24 21 20 18 16 15 14 13 13 11 10 9 7 8 9 9 11 12 14 16 17 18 20
52 48 43 42 39 38 36 34 33 32 30 27 25 23 22 20 19 19 18 18 18 19 21 21 20 21 23 24 24 26 29 32
57 53 48 48 45 44 42 39 38 38 37 35 33 32 31 30 29 28 27 27 27 28 29 29 28 30 32 34 36 37 39 50
60 53 52 53 51 49 48 47 47 44 41 41 40 39 38 37 36 35 34 38 38 37 36 37 37 39 40 41 44 48 50 60
63 59 56 58 57 53 53 53 52 50 48 49 48 46 45 45 45 44 46 48 48 44 46 46 48 49 49 49 53 61 64 68
63 64 65 66 64 61 61 61 59 57 56 55 54 54 54 53 54 55 57 58 58 53 54 54 53 55 59 60 67 72 74 75
Wind_Direction_850mb
319 323 328 330 331 332 328 329 325 325 321 294 256 232 216 227 232 236 242 237 231 226 219 223 216 209 206 211 218 217 222 229
324 328 334 333 341 341 338 339 336 339 344 319 248 200 204 225 225 222 214 249 241 215 213 217 204 199 192 188 189 197 212 223
332 338 341 348 354 358 357 359 359 2 17 70 128 143 180 194 187 180 216 213 205 199 195 193 182 184 184 181 181 182 191 189
342 357 358 6 8 10 13 26 25 35 48 81 111 130 140 141 142 158 178 174 168 165 163 159 152 155 156 152 149 151 152 147
350 13 15 19 20 27 37 47 57 74 85 97 104 115 122 125 130 134 137 139 135 134 131 129 130 132 131 130 132 133 133 132
27 49 44 42 45 59 70 79 94 96 96 98 105 112 117 122 124 126 129 129 126 123 121 120 120 119 121 122 121 121 119 117
89 86 72 65 74 85 90 95 97 96 96 101 105 110 113 117 119 121 120 118 118 119 121 121 117 118 118 119 120 120 119 120
133 112 102 95 94 94 94 99 98 97 101 104 107 110 113 116 118 114 111 113 113 113 115 113 112 114 114 116 117 117 116 114
131 124 115 109 105 103 103 102 93 97 97 98 99 100 103 105 106 108 113 116 116 115 116 113 110 111 109 109 110 113 115 116
136 128 123 119 115 114 112 116 118 114 113 109 106 107 109 110 108 109 111 111 113 111 111 113 113 114 115 115 117 117 117 115
143 140 138 134 128 124 122 119 119 116 116 113 112 111 112 109 109 113 115 113 111 113 113 112 112 112 111 113 115 114 112 107
156 156 155 147 140 137 140 138 135 130 126 124 122 122 121 120 123 121 117 113 113 113 113 112 111 111 111 111 103 100 89 73
173 173 174 171 168 165 166 162 160 157 154 150 145 142 137 131 126 120 119 120 121 118 110 107 110 104 90 77 59 32 15 4
189 190 190 189 189 187 189 190 186 181 177 175 176 173 170 163 155 153 152 143 132 123 136 163 183 216 286 304 312 320 326 324
201 202 200 199 199 197 201 204 204 204 204 205 205 205 206 208 213 218 221 226 236 251 268 278 282 283 281 281 282 285 287 287
213 212 208 208 208 208 210 212 214 216 218 221 223 224 226 228 232 236 240 244 246 250 254 259 262 263 269 277 281 286 289 288
221 219 214 216 216 217 218 222 226 228 229 230 231 233 234 236 239 242 246 253 259 263 268 269 271 274 279 283 286 287 288 288
230 228 221 222 223 224 224 228 231 234 237 239 241 243 246 248 252 255 255 256 258 261 265 270 274 275 276 277 278 278 276 276
237 234 231 231 232 231 231 234 236 239 240 243 246 249 252 255 259 261 261 262 266 267 269 269 272 274 275 277 274 273 274 277
242 239 237 235 236 233 235 238 241 243 245 248 250 253 255 256 258 260 262 265 268 267 264 270 274 276 276 275 271 275 278 281